Location: Amon Carter Post Office
(32.8281°N, 97.0484°W)
Time: 03:28:27
(UTC+00:00)

Meteor 2-15 Rocket - Pass Details

Date: 10 July 2022
Orbit: 939 x 956 km, 82.5° (Epoch: 07 August)

Event Time Altitude Azimuth Distance (km) Brightness Sun altitude
Rises 09:45:00 0° 3° (N) 3,634 8.2 -18.5°
Reaches altitude 10° 09:47:45 10° 12° (NNE) 2,683 7.6 -18.1°
Maximum altitude 09:53:20 36° 78° (ENE) 1,459 6.0 -17.2°
Drops below altitude 10° 09:58:52 10° 144° (SE) 2,660 6.7 -16.3°
Sets 10:01:33 0° 152° (SSE) 3,598 7.3 -15.9°
